Вернуться в каталог

QIANFAN-185

АктивенСвязьPO
NORAD 69403·PAYLOAD·🇨🇳 China

Запущен Jun 5, 2026 с Wenchang Space Launch Site

Loading…

Ближайшие Пролёты (ближайшие 24 часа)

TLE

СвежийSource: Space-Track

Эпоха: Sep 14, 2026, 13:30 UTC

1 69403U 26125C   26257.56290220  .00000008  00000-0 -58381-5 0  9995
2 69403  88.9898 270.8766 0001845  99.0683 261.0677 13.51017614 14040

Отслеживайте QIANFAN-185 в реальном времени с AllMySat

Download on the App Store